Content
SEND FEEDBACK

Daily
Averages
Monthly
Summary
India

LUCKNOW, INDIA


Home > Asia > India
Elevation: 400 feet     Latitude: 26 45N     Longitude: 080 52E

WEATHER
 
SELECT A DAY
Number of Records: 129,187;   Date Range: 7/2/96 - 10/23/14
 
SHARE

PRINT THIS DATA

[ ← Previous Day ]
WEATHER ALMANAC - JULY 1, 2013
[ Next Day → ]
[ °C ]   °F
We're sorry. There is no daily almanac available for Lucknow, India on July 1, 2013.
WEATHER BY HOUR - JULY 1, 2013
[ °C ]   °F
Local TimeTemperatureDewpointHumidityBarometerVisibilityWind DirectionWind SpeedGust SpeedPrecipitationEventsConditions
1:00 AM78.8 °F77.0 °F94 %29.47 in1.2 miEast (80°)5.8 mphRainLight Rain
2:30 AM76.0 °F76.0 °F100 %29.45 in1.0 miNE (50°)9.2 mphRainLight Rain
3:00 AM75.2 °F75.2 °F100 %29.44 in0.9 miNorth (360°)12.7 mphRainLight Rain
5:30 AM76.0 °F74.0 °F94 %29.46 in1.0 miNNE (20°)5.8 mphRainLight Rain
5:30 AM75.2 °F75.2 °F100 %29.44 in0.9 miNNE (20°)5.8 mphRainLight Rain
6:00 AM75.2 °F75.2 °F100 %29.44 in0.9 miWNW (300°)4.6 mphOvercast
6:30 AM75.2 °F73.4 °F94 %29.44 in0.9 miNW (310°)4.6 mphRainLight Rain
7:00 AM75.2 °F75.2 °F100 %29.44 in0.9 miWNW (300°)4.6 mphRainLight Rain
7:30 AM75.2 °F73.4 °F94 %29.44 in0.9 miWNW (290°)4.6 mphRainLight Rain
8:00 AM77.0 °F75.2 °F94 %29.47 in0.6 miSE (140°)4.6 mphRainRain
8:30 AM76.0 °F75.0 °F96 %29.48 in1.0 miWSW (250°)4.6 mphRainLight Rain
9:30 AM78.8 °F77.0 °F94 %29.47 in2.2 miWest (280°)5.8 mphMostly Cloudy
10:00 AM78.8 °F77.0 °F94 %29.47 in2.2 miWNW (300°)5.8 mphMostly Cloudy
10:30 AM80.6 °F78.8 °F94 %29.47 in2.2 miNW (320°)5.8 mphMostly Cloudy
11:00 AM80.6 °F78.8 °F94 %29.47 in2.2 miNNW (330°)6.9 mphMostly Cloudy
11:30 AM80.6 °F77.0 °F89 %29.47 in1.9 miNW (320°)5.8 mphOvercast
1:30 PM82.4 °F78.8 °F89 %29.44 in2.5 miNorth (10°)8.1 mphOvercast
2:00 PM82.4 °F78.8 °F89 %2.5 miNorth (10°)5.8 mphScattered Clouds
2:30 PM84.0 °F77.0 °F74 %29.42 in2.0 miNorth5.8 mphHaze
2:30 PM84.2 °F77.0 °F79 %29.42 in2.5 miNorth (10°)5.8 mphHaze
3:00 PM84.2 °F77.0 °F79 %29.42 in2.5 miNorth (350°)6.9 mphHaze
3:30 PM84.2 °F77.0 °F79 %29.39 in2.5 miNorth (360°)5.8 mphHaze
4:00 PM84.2 °F77.0 °F79 %29.39 in2.5 miNorth (350°)4.6 mphHaze
5:00 PM84.2 °F77.0 °F79 %29.39 in2.5 miVariable2.3 mphHaze
5:30 PM84.0 °F79.0 °F80 %29.39 in2.0 miNNW (340°)4.6 mphHaze
5:30 PM84.2 °F78.8 °F84 %29.39 in2.5 miNNW (340°)4.6 mphHaze
6:00 PM84.2 °F78.8 °F84 %29.39 in2.5 miVariable2.3 mphHaze
6:30 PM82.4 °F78.8 °F89 %29.39 in2.2 miVariable3.5 mphHaze
7:00 PM0.0 °F0.0 °F29.39 in1.6 miVariable3.5 mphHaze
8:00 PM82.4 °F78.8 °F89 %29.42 in1.6 miNE (40°)3.5 mphHaze
8:30 PM81.0 °F78.0 °F88 %29.42 in1.0 miNNE (20°)3.5 mphHaze
8:30 PM80.6 °F78.8 °F94 %29.42 in1.6 miNNE (20°)3.5 mphHaze
9:00 PM80.6 °F78.8 °F94 %29.44 in1.6 miVariable2.3 mphHaze
10:00 PM80.6 °F78.8 °F94 %29.42 in1.6 miVariable2.3 mphHaze
11:00 PM80.6 °F78.8 °F94 %29.42 in1.6 miVariable2.3 mphHaze
Hourly data recorded from VILK, located miles away from Lucknow, India







STORIES FROM OUR PARTNERS